Weather History for Szolnok, Hungary

Change the Weather History Date:

Sunday, February 24, 2013

  Actual Average (LHBP) Record (LHBP)
Temperature  
Mean Temperature 44 °F -  
Max Temperature 48 °F 40 °F 60 °F (2008)
Min Temperature 39 °F 26 °F 12 °F (2003)
Degree Days  
Heating Degree Days 22    
Moisture  
Dew Point 40 °F    
Average Humidity 85    
Maximum Humidity 93    
Minimum Humidity 71    
Precipitation  
Precipitation 0.00 in - - ()
Sea Level Pressure  
Sea Level Pressure 29.87 in    
Wind  
Wind Speed 8 mph ()    
Max Wind Speed 16 mph    
Max Gust Speed -    
Visibility 6.2 miles    
Events Rain    
Averages and records for this station are not official NWS values.
T = Trace of Precipitation, MM = Missing Value Source: Averaged Metar Reports

Daily Weather History Graph

Daily Weather History Graph

Search for Another Location

Airport:

Trip Planner

Search our weather history database for the weather conditions in past years. The results will help you decide how hot, cold, wet, or windy it might be!

Date:

Astronomy

Feb. 24, 2013 Rise Set
Actual Time 6:28 AM CET 5:16 PM CET
Civil Twilight 5:57 AM CET 5:47 PM CET
Nautical Twilight 5:22 AM CET 6:23 PM CET
Astronomical Twilight 4:46 AM CET 6:58 PM CET
Moon 4:08 PM CET (2/24) 5:17 AM CET (2/24)
Length of Visible Light 11h 50m
Length of Day
10h 48m
Waxing Gibbous, 98% of the Moon is Illuminated
Feb 24
Waxing Gibbous
Feb 25
Full
Mar 4
Last Quarter
Mar 11
New
Mar 19
First Quarter

Hourly Weather History & Observations

Time (CET) Temp. Windchill Dew Point Humidity Pressure Visibility Wind Dir Wind Speed Gust Speed Precip Events Conditions
12:15 AM 42.8 °F 37.6 °F 37.4 °F 81% 29.83 in 6.2 mi East 8.9 mph - N/A Rain Light Rain
12:45 AM 44.6 °F 39.8 °F 35.6 °F 71% 29.83 in 6.2 mi ESE 8.9 mph - N/A Rain Light Rain
1:15 AM 42.8 °F 37.6 °F 37.4 °F 81% 29.83 in 6.2 mi ESE 8.9 mph - N/A Rain Light Rain
1:45 AM 44.6 °F 39.8 °F 35.6 °F 71% 29.80 in 6.2 mi East 8.9 mph - N/A Rain Light Rain
2:15 AM 42.8 °F 37.6 °F 35.6 °F 76% 29.80 in 6.2 mi ESE 8.9 mph - N/A Rain Light Rain
2:45 AM 42.8 °F 37.6 °F 35.6 °F 76% 29.83 in 6.2 mi ESE 8.9 mph - N/A Rain Light Rain
3:15 AM 42.8 °F 35.2 °F 37.4 °F 81% 29.77 in 6.2 mi ESE 15.7 mph - N/A Rain Light Rain
3:45 AM 42.8 °F 35.9 °F 35.6 °F 76% 29.80 in 6.2 mi ESE 13.4 mph - N/A Rain Light Rain
4:15 AM 42.8 °F 35.2 °F 35.6 °F 76% 29.80 in - ESE 15.7 mph - N/A   Clear
5:15 AM 42.8 °F 37.6 °F 35.6 °F 76% 29.80 in - ESE 8.9 mph - N/A   Clear
5:45 AM - - - N/A% - 6.2 mi ESE 11.2 mph - N/A   Overcast
6:15 AM 39.2 °F 34.4 °F 35.6 °F 87% 29.83 in - East 6.7 mph - N/A   Clear
6:45 AM 39.2 °F 34.4 °F 35.6 °F 87% 29.83 in - East 6.7 mph - N/A   Clear
7:15 AM 41.0 °F 38.1 °F 37.4 °F 87% 29.83 in - East 4.5 mph - N/A   Clear
7:45 AM 41.0 °F 36.5 °F 37.4 °F 87% 29.86 in 6.2 mi East 6.7 mph - N/A Rain Light Rain
8:15 AM 41.0 °F 35.4 °F 37.4 °F 87% 29.86 in 6.2 mi East 8.9 mph - N/A Rain Light Rain
8:45 AM - - - N/A% - 6.2 mi East 11.2 mph - N/A   Overcast
9:15 AM 44.6 °F 39.8 °F 39.2 °F 81% 29.86 in - East 8.9 mph - N/A   Clear
9:45 AM 44.6 °F 39.8 °F 39.2 °F 81% 29.89 in - East 8.9 mph - N/A   Clear
10:04 AM 44.6 °F 39.8 °F 39.2 °F 81% 29.89 in 6.2 mi East 8.9 mph - N/A Rain Light Rain
10:15 AM 44.6 °F 39.8 °F 39.2 °F 81% 29.89 in 6.2 mi East 8.9 mph - N/A Rain Light Rain
10:45 AM 44.6 °F 39.8 °F 41.0 °F 87% 29.92 in 6.2 mi ENE 8.9 mph - N/A Rain Light Rain
11:15 AM 44.6 °F 40.8 °F 41.0 °F 87% 29.92 in 6.2 mi ENE 6.7 mph - N/A Rain Light Rain
11:45 AM - - - N/A% - 6.2 mi East 11.2 mph - N/A   Overcast
12:15 PM 44.6 °F 40.8 °F 41.0 °F 87% 29.89 in 6.2 mi ENE 6.7 mph - N/A Rain Light Rain
12:45 PM 44.6 °F 39.8 °F 42.8 °F 93% 29.89 in 6.2 mi ENE 8.9 mph - N/A Rain Light Rain
1:15 PM 44.6 °F 38.9 °F 42.8 °F 93% 29.89 in 6.2 mi ENE 11.2 mph - N/A Rain Light Rain
1:45 PM 46.4 °F 41.2 °F 42.8 °F 87% 29.89 in 6.2 mi ENE 11.2 mph - N/A Rain Light Rain
2:15 PM 46.4 °F 41.2 °F 44.6 °F 93% 29.89 in 6.2 mi East 11.2 mph - N/A Rain Light Rain
2:45 PM - - - N/A% - 6.2 mi East 11.2 mph - N/A   Overcast
3:15 PM 48.2 °F - 44.6 °F 87% 29.86 in 6.2 mi East 8.9 mph - N/A Rain Light Rain
3:45 PM 48.2 °F - 44.6 °F 87% 29.86 in 6.2 mi East 8.9 mph - N/A Rain Light Rain
4:15 PM 48.2 °F - 44.6 °F 87% 29.86 in 6.2 mi East 8.9 mph - N/A   Overcast
4:45 PM 48.2 °F - 44.6 °F 87% 29.89 in 6.2 mi East 6.7 mph - N/A   Overcast
5:15 PM 48.2 °F - 42.8 °F 82% 29.89 in 6.2 mi East 4.5 mph - N/A   Mostly Cloudy
5:45 PM - - - N/A% - 6.2 mi East 11.2 mph - N/A   Overcast
6:15 PM 46.4 °F 44.4 °F 44.6 °F 93% 29.89 in 6.2 mi East 4.5 mph - N/A   Mostly Cloudy
6:45 PM 46.4 °F 44.4 °F 44.6 °F 93% 29.89 in - ENE 4.5 mph - N/A   Clear
7:15 PM 44.6 °F - 42.8 °F 93% 29.89 in 6.2 mi SE 2.2 mph - N/A   Mostly Cloudy
7:45 PM 44.6 °F - 42.8 °F 93% 29.89 in 6.2 mi ESE 2.2 mph - N/A   Mostly Cloudy
8:15 PM 44.6 °F - 42.8 °F 93% 29.89 in 6.2 mi ENE 2.2 mph - N/A Rain Light Rain
8:45 PM - - - N/A% - 6.2 mi ENE 4.5 mph - N/A   Overcast
9:15 PM 44.6 °F 42.3 °F 42.8 °F 93% 29.89 in 6.2 mi NE 4.5 mph - N/A Rain Light Rain
9:45 PM 44.6 °F 42.3 °F 42.8 °F 93% 29.92 in 6.2 mi ENE 4.5 mph - N/A Rain Light Rain
10:15 PM 46.4 °F 42.0 °F 42.8 °F 87% 29.92 in 6.2 mi ESE 8.9 mph - N/A   Mostly Cloudy
10:45 PM 46.4 °F 42.0 °F 42.8 °F 87% 29.92 in 6.2 mi ESE 8.9 mph - N/A Rain Light Rain
11:00 PM - - - N/A% - 6.2 mi ENE 4.5 mph - N/A   Overcast
11:15 PM 44.6 °F 38.9 °F 41.0 °F 87% 29.92 in 6.2 mi SE 11.2 mph - N/A Rain Light Rain
11:45 PM - - - N/A% - 6.2 mi North - - N/A   Overcast